Year,Month,Day,Hour,Minute,Value (Times are PST for temperature in C)
2019,04,02,00,00,9.20
2019,04,02,00,01,9.20
2019,04,02,00,02,9.10
2019,04,02,00,03,9.10
2019,04,02,00,04,9.10
2019,04,02,00,05,9.00
2019,04,02,00,06,9.00
2019,04,02,00,07,8.90
2019,04,02,00,08,8.90
2019,04,02,00,09,8.80
2019,04,02,00,10,8.80
2019,04,02,00,11,8.80
2019,04,02,00,12,8.70
2019,04,02,00,13,8.70
2019,04,02,00,14,8.70
2019,04,02,00,15,8.70
2019,04,02,00,16,8.70
2019,04,02,00,17,8.70
2019,04,02,00,18,8.70
2019,04,02,00,19,8.70
2019,04,02,00,20,8.80
2019,04,02,00,21,8.80
2019,04,02,00,22,8.80
2019,04,02,00,23,8.80
2019,04,02,00,24,8.80
2019,04,02,00,25,8.80
2019,04,02,00,26,8.80
2019,04,02,00,27,8.80
2019,04,02,00,28,8.80
2019,04,02,00,29,8.70
2019,04,02,00,30,8.60
2019,04,02,00,31,8.60
2019,04,02,00,32,8.50
2019,04,02,00,33,8.50
2019,04,02,00,34,8.40
2019,04,02,00,35,8.40
2019,04,02,00,36,8.30
2019,04,02,00,37,8.30
2019,04,02,00,38,8.30
2019,04,02,00,39,8.30
2019,04,02,00,40,8.30
2019,04,02,00,41,8.20
2019,04,02,00,42,8.20
2019,04,02,00,43,8.20
2019,04,02,00,44,8.20
2019,04,02,00,45,8.20
2019,04,02,00,46,8.20
2019,04,02,00,47,8.20
2019,04,02,00,48,8.30
2019,04,02,00,49,8.30
2019,04,02,00,50,8.30
2019,04,02,00,51,8.30
2019,04,02,00,52,8.30
2019,04,02,00,53,8.20
2019,04,02,00,54,8.20
2019,04,02,00,55,8.20
2019,04,02,00,56,8.20
2019,04,02,00,57,8.10
2019,04,02,00,58,8.10
2019,04,02,00,59,8.10
2019,04,02,01,00,8.10
2019,04,02,01,01,8.00
2019,04,02,01,02,8.00
2019,04,02,01,03,7.90
2019,04,02,01,04,7.90
2019,04,02,01,05,7.80
2019,04,02,01,06,7.80
2019,04,02,01,07,7.80
2019,04,02,01,08,7.80
2019,04,02,01,09,7.80
2019,04,02,01,10,7.80
2019,04,02,01,11,7.80
2019,04,02,01,12,7.80
2019,04,02,01,13,7.80
2019,04,02,01,14,7.80
2019,04,02,01,15,7.80
2019,04,02,01,16,7.90
2019,04,02,01,17,7.90
2019,04,02,01,18,8.00
2019,04,02,01,19,8.10
2019,04,02,01,20,8.10
2019,04,02,01,21,8.10
2019,04,02,01,22,8.20
2019,04,02,01,23,8.20
2019,04,02,01,24,8.30
2019,04,02,01,25,8.30
2019,04,02,01,26,8.40
2019,04,02,01,27,8.50
2019,04,02,01,28,8.50
2019,04,02,01,29,8.50
2019,04,02,01,30,8.50
2019,04,02,01,31,8.50
2019,04,02,01,32,8.40
2019,04,02,01,33,8.30
2019,04,02,01,34,8.30
2019,04,02,01,35,8.20
2019,04,02,01,36,8.10
2019,04,02,01,37,8.10
2019,04,02,01,38,8.00
2019,04,02,01,39,8.00
2019,04,02,01,40,7.90
2019,04,02,01,41,7.90
2019,04,02,01,42,7.80
2019,04,02,01,43,7.70
2019,04,02,01,44,7.60
2019,04,02,01,45,7.50
2019,04,02,01,46,7.40
2019,04,02,01,47,7.40
2019,04,02,01,48,7.30
2019,04,02,01,49,7.40
2019,04,02,01,50,7.40
2019,04,02,01,51,7.50
2019,04,02,01,52,7.50
2019,04,02,01,53,7.50
2019,04,02,01,54,7.60
2019,04,02,01,55,7.60
2019,04,02,01,56,7.60
2019,04,02,01,57,7.60
2019,04,02,01,58,7.60
2019,04,02,01,59,7.60
2019,04,02,02,00,7.60
2019,04,02,02,01,7.60
2019,04,02,02,02,7.60
2019,04,02,02,03,7.60
2019,04,02,02,04,7.60
2019,04,02,02,05,7.60
2019,04,02,02,06,7.60
2019,04,02,02,07,7.60
2019,04,02,02,08,7.60
2019,04,02,02,09,7.60
2019,04,02,02,10,7.60
2019,04,02,02,11,7.60
2019,04,02,02,12,7.60
2019,04,02,02,13,7.60
2019,04,02,02,14,7.60
2019,04,02,02,15,7.70
2019,04,02,02,16,7.70
2019,04,02,02,17,7.70
2019,04,02,02,18,7.70
2019,04,02,02,19,7.70
2019,04,02,02,20,7.70
2019,04,02,02,21,7.70
2019,04,02,02,22,7.80
2019,04,02,02,23,7.80
2019,04,02,02,24,8.00
2019,04,02,02,25,8.10
2019,04,02,02,26,8.10
2019,04,02,02,27,8.20
2019,04,02,02,28,8.20
2019,04,02,02,29,8.20
2019,04,02,02,30,8.30
2019,04,02,02,31,8.30
2019,04,02,02,32,8.40
2019,04,02,02,33,8.40
2019,04,02,02,34,8.50
2019,04,02,02,35,8.60
2019,04,02,02,36,8.70
2019,04,02,02,37,8.80
2019,04,02,02,38,8.80
2019,04,02,02,39,8.80
2019,04,02,02,40,8.70
2019,04,02,02,41,8.50
2019,04,02,02,42,8.30
2019,04,02,02,43,8.00
2019,04,02,02,44,7.80
2019,04,02,02,45,7.70
2019,04,02,02,46,7.60
2019,04,02,02,47,7.50
2019,04,02,02,48,7.50
2019,04,02,02,49,7.50
2019,04,02,02,50,7.50
2019,04,02,02,51,7.40
2019,04,02,02,52,7.40
2019,04,02,02,53,7.40
2019,04,02,02,54,7.40
2019,04,02,02,55,7.40
2019,04,02,02,56,7.40
2019,04,02,02,57,7.50
2019,04,02,02,58,7.60
2019,04,02,02,59,7.60
2019,04,02,03,00,7.70
2019,04,02,03,01,7.70
2019,04,02,03,02,7.70
2019,04,02,03,03,7.70
2019,04,02,03,04,7.70
2019,04,02,03,05,7.80
2019,04,02,03,06,7.80
2019,04,02,03,07,7.80
2019,04,02,03,08,7.80
2019,04,02,03,09,7.80
2019,04,02,03,10,7.80
2019,04,02,03,11,7.80
2019,04,02,03,12,7.80
2019,04,02,03,13,7.90
2019,04,02,03,14,7.90
2019,04,02,03,15,7.90
2019,04,02,03,16,8.00
2019,04,02,03,17,8.10
2019,04,02,03,18,8.20
2019,04,02,03,19,8.20
2019,04,02,03,20,8.30
2019,04,02,03,21,8.30
2019,04,02,03,22,8.30
2019,04,02,03,23,8.30
2019,04,02,03,24,8.40
2019,04,02,03,25,8.40
2019,04,02,03,26,8.40
2019,04,02,03,27,8.40
2019,04,02,03,28,8.40
2019,04,02,03,29,8.40
2019,04,02,03,30,8.50
2019,04,02,03,31,8.50
2019,04,02,03,32,8.60
2019,04,02,03,33,8.70
2019,04,02,03,34,8.80
2019,04,02,03,35,8.90
2019,04,02,03,36,9.00
2019,04,02,03,37,9.00
2019,04,02,03,38,9.10
2019,04,02,03,39,9.10
2019,04,02,03,40,9.20
2019,04,02,03,41,9.20
2019,04,02,03,42,9.20
2019,04,02,03,43,9.20
2019,04,02,03,44,9.10
2019,04,02,03,45,9.10
2019,04,02,03,46,9.10
2019,04,02,03,47,9.00
2019,04,02,03,48,8.80
2019,04,02,03,49,8.80
2019,04,02,03,50,8.80
2019,04,02,03,51,8.80
2019,04,02,03,52,8.80
2019,04,02,03,53,8.70
2019,04,02,03,54,8.70
2019,04,02,03,55,8.70
2019,04,02,03,56,8.80
2019,04,02,03,57,8.80
2019,04,02,03,58,8.90
2019,04,02,03,59,8.90
2019,04,02,04,00,9.00
2019,04,02,04,01,8.90
2019,04,02,04,02,8.80
2019,04,02,04,03,8.60
2019,04,02,04,04,8.50
2019,04,02,04,05,8.40
2019,04,02,04,06,8.30
2019,04,02,04,07,8.30
2019,04,02,04,08,8.30
2019,04,02,04,09,8.40
2019,04,02,04,10,8.40
2019,04,02,04,11,8.50
2019,04,02,04,12,8.50
2019,04,02,04,13,8.60
2019,04,02,04,14,8.60
2019,04,02,04,15,8.60
2019,04,02,04,16,8.70
2019,04,02,04,17,8.70
2019,04,02,04,18,8.70
2019,04,02,04,19,8.80
2019,04,02,04,20,8.90
2019,04,02,04,21,8.90
2019,04,02,04,22,8.90
2019,04,02,04,23,8.90
2019,04,02,04,24,8.90
2019,04,02,04,25,8.90
2019,04,02,04,26,8.90
2019,04,02,04,27,8.80
2019,04,02,04,28,8.80
2019,04,02,04,29,8.80
2019,04,02,04,30,8.80
2019,04,02,04,31,8.80
2019,04,02,04,32,8.70
2019,04,02,04,33,8.70
2019,04,02,04,34,8.70
2019,04,02,04,35,8.70
2019,04,02,04,36,8.70
2019,04,02,04,37,8.70
2019,04,02,04,38,8.70
2019,04,02,04,39,8.70
2019,04,02,04,40,8.80
2019,04,02,04,41,8.80
2019,04,02,04,42,8.80
2019,04,02,04,43,8.70
2019,04,02,04,44,8.80
2019,04,02,04,45,8.80
2019,04,02,04,46,8.80
2019,04,02,04,47,8.80
2019,04,02,04,48,8.90
2019,04,02,04,49,9.00
2019,04,02,04,50,9.00
2019,04,02,04,51,9.10
2019,04,02,04,52,9.00
2019,04,02,04,53,8.90
2019,04,02,04,54,8.90
2019,04,02,04,55,8.80
2019,04,02,04,56,8.80
2019,04,02,04,57,8.70
2019,04,02,04,58,8.70
2019,04,02,04,59,8.70
2019,04,02,05,00,8.80
2019,04,02,05,01,8.90
2019,04,02,05,02,9.00
2019,04,02,05,03,9.00
2019,04,02,05,04,9.10
2019,04,02,05,05,9.30
2019,04,02,05,06,9.50
2019,04,02,05,07,9.50
2019,04,02,05,08,9.60
2019,04,02,05,09,9.60
2019,04,02,05,10,9.60
2019,04,02,05,11,9.60
2019,04,02,05,12,9.60
2019,04,02,05,13,9.60
2019,04,02,05,14,9.60
2019,04,02,05,15,9.50
2019,04,02,05,16,9.50
2019,04,02,05,17,9.40
2019,04,02,05,18,9.40
2019,04,02,05,19,9.30
2019,04,02,05,20,9.30
2019,04,02,05,21,9.20
2019,04,02,05,22,9.20
2019,04,02,05,23,9.10
2019,04,02,05,24,9.00
2019,04,02,05,25,9.00
2019,04,02,05,26,8.90
2019,04,02,05,27,8.90
2019,04,02,05,28,8.90
2019,04,02,05,29,8.90
2019,04,02,05,30,8.90
2019,04,02,05,31,8.90
2019,04,02,05,32,8.90
2019,04,02,05,33,8.90
2019,04,02,05,34,8.90
2019,04,02,05,35,8.90
2019,04,02,05,36,8.80
2019,04,02,05,37,8.80
2019,04,02,05,38,8.80
2019,04,02,05,39,8.80
2019,04,02,05,40,8.90
2019,04,02,05,41,9.00
2019,04,02,05,42,9.00
2019,04,02,05,43,9.10
2019,04,02,05,44,9.20
2019,04,02,05,45,9.30
2019,04,02,05,46,9.50
2019,04,02,05,47,9.60
2019,04,02,05,48,9.60
2019,04,02,05,49,9.50
2019,04,02,05,50,9.40
2019,04,02,05,51,9.30
2019,04,02,05,52,9.20
2019,04,02,05,53,9.10
2019,04,02,05,54,9.00
2019,04,02,05,55,8.90
2019,04,02,05,56,8.90
2019,04,02,05,57,8.80
2019,04,02,05,58,8.80
2019,04,02,05,59,8.70
2019,04,02,06,00,8.70
2019,04,02,06,01,8.60
2019,04,02,06,02,8.60
2019,04,02,06,03,8.60
2019,04,02,06,04,8.50
2019,04,02,06,05,8.50
2019,04,02,06,06,8.40
2019,04,02,06,07,8.40
2019,04,02,06,08,8.40
2019,04,02,06,09,8.40
2019,04,02,06,10,8.40
2019,04,02,06,11,8.40
2019,04,02,06,12,8.40
2019,04,02,06,13,8.40
2019,04,02,06,14,8.30
2019,04,02,06,15,8.30
2019,04,02,06,16,8.20
2019,04,02,06,17,8.20
2019,04,02,06,18,8.20
2019,04,02,06,19,8.20
2019,04,02,06,20,8.20
2019,04,02,06,21,8.20
2019,04,02,06,22,8.20
2019,04,02,06,23,8.20
2019,04,02,06,24,8.20
2019,04,02,06,25,8.20
2019,04,02,06,26,8.20
2019,04,02,06,27,8.20
2019,04,02,06,28,8.20
2019,04,02,06,29,8.10
2019,04,02,06,30,8.10
2019,04,02,06,31,8.10
2019,04,02,06,32,8.10
2019,04,02,06,33,8.00
2019,04,02,06,34,8.00
2019,04,02,06,35,7.90
2019,04,02,06,36,7.80
2019,04,02,06,37,7.90
2019,04,02,06,38,7.90
2019,04,02,06,39,7.90
2019,04,02,06,40,7.90
2019,04,02,06,41,8.00
2019,04,02,06,42,8.00
2019,04,02,06,43,7.90
2019,04,02,06,44,8.00
2019,04,02,06,45,8.00
2019,04,02,06,46,8.10
2019,04,02,06,47,8.10
2019,04,02,06,48,8.10
2019,04,02,06,49,8.10
2019,04,02,06,50,8.10
2019,04,02,06,51,8.20
2019,04,02,06,52,8.10
2019,04,02,06,53,8.10
2019,04,02,06,54,8.10
2019,04,02,06,55,8.00
2019,04,02,06,56,8.00
2019,04,02,06,57,7.90
2019,04,02,06,58,7.90
2019,04,02,06,59,7.90
2019,04,02,07,00,7.90
2019,04,02,07,01,7.90
2019,04,02,07,02,7.90
2019,04,02,07,03,7.90
2019,04,02,07,04,7.90
2019,04,02,07,05,7.90
2019,04,02,07,06,7.90
2019,04,02,07,07,7.90
2019,04,02,07,08,7.90
2019,04,02,07,09,7.90
2019,04,02,07,10,7.90
2019,04,02,07,11,7.90
2019,04,02,07,12,7.90
2019,04,02,07,13,8.00
2019,04,02,07,14,8.00
2019,04,02,07,15,8.00
2019,04,02,07,16,8.10
2019,04,02,07,17,8.10
2019,04,02,07,18,8.10
2019,04,02,07,19,8.10
2019,04,02,07,20,8.10
2019,04,02,07,21,8.20
2019,04,02,07,22,8.20
2019,04,02,07,23,8.20
2019,04,02,07,24,8.30
2019,04,02,07,25,8.30
2019,04,02,07,26,8.30
2019,04,02,07,27,8.30
2019,04,02,07,28,8.30
2019,04,02,07,29,8.20
2019,04,02,07,30,8.20
2019,04,02,07,31,8.20
2019,04,02,07,32,8.30
2019,04,02,07,33,8.30
2019,04,02,07,34,8.40
2019,04,02,07,35,8.40
2019,04,02,07,36,8.50
2019,04,02,07,37,8.60
2019,04,02,07,38,8.70
2019,04,02,07,39,8.80
2019,04,02,07,40,9.00
2019,04,02,07,41,9.10
2019,04,02,07,42,9.20
2019,04,02,07,43,9.30
2019,04,02,07,44,9.50
2019,04,02,07,45,9.70
2019,04,02,07,46,9.80
2019,04,02,07,47,10.00
2019,04,02,07,48,10.10
2019,04,02,07,49,10.30
2019,04,02,07,50,10.50
2019,04,02,07,51,10.70
2019,04,02,07,52,10.90
2019,04,02,07,53,11.00
2019,04,02,07,54,11.10
2019,04,02,07,55,11.20
2019,04,02,07,56,11.30
2019,04,02,07,57,11.30
2019,04,02,07,58,11.30
2019,04,02,07,59,11.30
2019,04,02,08,00,11.30
2019,04,02,08,01,11.30
2019,04,02,08,02,11.30
2019,04,02,08,03,11.30
2019,04,02,08,04,11.30
2019,04,02,08,05,11.30
2019,04,02,08,06,11.30
2019,04,02,08,07,11.30
2019,04,02,08,08,11.30
2019,04,02,08,09,11.40
2019,04,02,08,10,11.50
2019,04,02,08,11,11.50
2019,04,02,08,12,11.60
2019,04,02,08,13,11.70
2019,04,02,08,14,11.80
2019,04,02,08,15,11.90
2019,04,02,08,16,12.00
2019,04,02,08,17,12.20
2019,04,02,08,18,12.20
2019,04,02,08,19,12.20
2019,04,02,08,20,12.20
2019,04,02,08,21,12.30
2019,04,02,08,22,12.30
2019,04,02,08,23,12.30
2019,04,02,08,24,12.30
2019,04,02,08,25,12.30
2019,04,02,08,26,12.30
2019,04,02,08,27,12.30
2019,04,02,08,28,12.30
2019,04,02,08,29,12.30
2019,04,02,08,30,12.30
2019,04,02,08,31,12.30
2019,04,02,08,32,12.20
2019,04,02,08,33,12.20
2019,04,02,08,34,12.20
2019,04,02,08,35,12.20
2019,04,02,08,36,12.20
2019,04,02,08,37,12.20
2019,04,02,08,38,12.10
2019,04,02,08,39,12.10
2019,04,02,08,40,12.10
2019,04,02,08,41,12.00
2019,04,02,08,42,12.00
2019,04,02,08,43,12.00
2019,04,02,08,44,12.00
2019,04,02,08,45,12.00
2019,04,02,08,46,12.00
2019,04,02,08,47,11.90
2019,04,02,08,48,11.90
2019,04,02,08,49,11.90
2019,04,02,08,50,11.90
2019,04,02,08,51,11.90
2019,04,02,08,52,11.90
2019,04,02,08,53,11.90
2019,04,02,08,54,11.90
2019,04,02,08,55,11.90
2019,04,02,08,56,11.90
2019,04,02,08,57,11.90
2019,04,02,08,58,11.90
2019,04,02,08,59,11.80
2019,04,02,09,00,11.80
2019,04,02,09,01,11.80
2019,04,02,09,02,11.80
2019,04,02,09,03,11.90
2019,04,02,09,04,11.90
2019,04,02,09,05,11.90
2019,04,02,09,06,11.90
2019,04,02,09,07,12.00
2019,04,02,09,08,12.00
2019,04,02,09,09,12.10
2019,04,02,09,10,12.10
2019,04,02,09,11,12.20
2019,04,02,09,12,12.40
2019,04,02,09,13,12.50
2019,04,02,09,14,12.70
2019,04,02,09,15,13.00
2019,04,02,09,16,13.10
2019,04,02,09,17,13.30
2019,04,02,09,18,13.40
2019,04,02,09,19,13.50
2019,04,02,09,20,13.50
2019,04,02,09,21,13.60
2019,04,02,09,22,13.60
2019,04,02,09,23,13.70
2019,04,02,09,24,13.70
2019,04,02,09,25,13.80
2019,04,02,09,26,13.90
2019,04,02,09,27,14.10
2019,04,02,09,28,14.30
2019,04,02,09,29,14.50
2019,04,02,09,30,14.80
2019,04,02,09,31,15.10
2019,04,02,09,32,15.20
2019,04,02,09,33,15.40
2019,04,02,09,34,15.60
2019,04,02,09,35,15.80
2019,04,02,09,36,15.90
2019,04,02,09,37,16.10
2019,04,02,09,38,16.20
2019,04,02,09,39,16.40
2019,04,02,09,40,16.50
2019,04,02,09,41,16.70
2019,04,02,09,42,16.80
2019,04,02,09,43,16.90
2019,04,02,09,44,17.00
2019,04,02,09,45,17.10
2019,04,02,09,46,17.20
2019,04,02,09,47,17.20
2019,04,02,09,48,17.20
2019,04,02,09,49,17.20
2019,04,02,09,50,17.20
2019,04,02,09,51,17.30
2019,04,02,09,52,17.30
2019,04,02,09,53,17.40
2019,04,02,09,54,17.40
2019,04,02,09,55,17.50
2019,04,02,09,56,17.50
2019,04,02,09,57,17.60
2019,04,02,09,58,17.70
2019,04,02,09,59,17.80
2019,04,02,10,00,17.80
2019,04,02,10,01,17.90
2019,04,02,10,02,18.00
2019,04,02,10,03,18.10
2019,04,02,10,04,18.20
2019,04,02,10,05,18.20
2019,04,02,10,06,18.10
2019,04,02,10,07,18.10
2019,04,02,10,08,17.90
2019,04,02,10,09,17.80
2019,04,02,10,10,17.80
2019,04,02,10,11,17.70
2019,04,02,10,12,17.60
2019,04,02,10,13,17.60
2019,04,02,10,14,17.60
2019,04,02,10,15,17.60
2019,04,02,10,16,17.60
2019,04,02,10,17,17.60
2019,04,02,10,18,17.50
2019,04,02,10,19,17.50
2019,04,02,10,20,17.50
2019,04,02,10,21,17.50
2019,04,02,10,22,17.60
2019,04,02,10,23,17.60
2019,04,02,10,24,17.50
2019,04,02,10,25,17.50
2019,04,02,10,26,17.50
2019,04,02,10,27,17.60
2019,04,02,10,28,17.60
2019,04,02,10,29,17.70
2019,04,02,10,30,17.70
2019,04,02,10,31,17.70
2019,04,02,10,32,17.60
2019,04,02,10,33,17.50
2019,04,02,10,34,17.50
2019,04,02,10,35,17.50
2019,04,02,10,36,17.50
2019,04,02,10,37,17.40
2019,04,02,10,38,17.30
2019,04,02,10,39,17.20
2019,04,02,10,40,17.20
2019,04,02,10,41,17.30
2019,04,02,10,42,17.30
2019,04,02,10,43,17.30
2019,04,02,10,44,17.30
2019,04,02,10,45,17.20
2019,04,02,10,46,17.20
2019,04,02,10,47,17.20
2019,04,02,10,48,17.20
2019,04,02,10,49,17.20
2019,04,02,10,50,17.30
2019,04,02,10,51,17.30
2019,04,02,10,52,17.30
2019,04,02,10,53,17.30
2019,04,02,10,54,17.20
2019,04,02,10,55,17.30
2019,04,02,10,56,17.30
2019,04,02,10,57,17.20
2019,04,02,10,58,17.20
2019,04,02,10,59,17.20
2019,04,02,11,00,17.20
2019,04,02,11,01,17.20
2019,04,02,11,02,17.20
2019,04,02,11,03,17.20
2019,04,02,11,04,17.30
2019,04,02,11,05,17.40
2019,04,02,11,06,17.50
2019,04,02,11,07,17.50
2019,04,02,11,08,17.60
2019,04,02,11,09,17.60
2019,04,02,11,10,17.40
2019,04,02,11,11,17.10
2019,04,02,11,12,16.90
2019,04,02,11,13,16.80
2019,04,02,11,14,16.60
2019,04,02,11,15,16.30
2019,04,02,11,16,16.20
2019,04,02,11,17,16.00
2019,04,02,11,18,15.90
2019,04,02,11,19,15.70
2019,04,02,11,20,15.60
2019,04,02,11,21,15.50
2019,04,02,11,22,15.50
2019,04,02,11,23,15.50
2019,04,02,11,24,15.60
2019,04,02,11,25,15.70
2019,04,02,11,26,15.70
2019,04,02,11,27,15.70
2019,04,02,11,28,15.70
2019,04,02,11,29,15.70
2019,04,02,11,30,15.80
2019,04,02,11,31,15.80
2019,04,02,11,32,15.90
2019,04,02,11,33,15.90
2019,04,02,11,34,15.90
2019,04,02,11,35,15.90
2019,04,02,11,36,16.00
2019,04,02,11,37,16.10
2019,04,02,11,38,16.10
2019,04,02,11,39,16.20
2019,04,02,11,40,16.30
2019,04,02,11,41,16.40
2019,04,02,11,42,16.50
2019,04,02,11,43,16.50
2019,04,02,11,44,16.50
2019,04,02,11,45,16.60
2019,04,02,11,46,16.60
2019,04,02,11,47,16.60
2019,04,02,11,48,16.70
2019,04,02,11,49,16.80
2019,04,02,11,50,16.90
2019,04,02,11,51,17.00
2019,04,02,11,52,17.10
2019,04,02,11,53,17.10
2019,04,02,11,54,17.10
2019,04,02,11,55,17.00
2019,04,02,11,56,16.80
2019,04,02,11,57,16.80
2019,04,02,11,58,16.90
2019,04,02,11,59,17.00
2019,04,02,12,00,17.10
2019,04,02,12,01,17.20
2019,04,02,12,02,17.20
2019,04,02,12,03,17.30
2019,04,02,12,04,17.30
2019,04,02,12,05,17.30
2019,04,02,12,06,17.30
2019,04,02,12,07,17.30
2019,04,02,12,08,17.30
2019,04,02,12,09,17.30
2019,04,02,12,10,17.30
2019,04,02,12,11,17.20
2019,04,02,12,12,17.00
2019,04,02,12,13,16.90
2019,04,02,12,14,16.80
2019,04,02,12,15,16.80
2019,04,02,12,16,16.70
2019,04,02,12,17,16.70
2019,04,02,12,18,16.60
2019,04,02,12,19,16.50
2019,04,02,12,20,16.50
2019,04,02,12,21,16.50
2019,04,02,12,22,16.40
2019,04,02,12,23,16.40
2019,04,02,12,24,16.30
2019,04,02,12,25,16.40
2019,04,02,12,26,16.40
2019,04,02,12,27,16.50
2019,04,02,12,28,16.60
2019,04,02,12,29,16.60
2019,04,02,12,30,16.60
2019,04,02,12,31,16.70
2019,04,02,12,32,16.70
2019,04,02,12,33,16.70
2019,04,02,12,34,16.70
2019,04,02,12,35,16.80
2019,04,02,12,36,16.80
2019,04,02,12,37,16.70
2019,04,02,12,38,16.70
2019,04,02,12,39,16.70
2019,04,02,12,40,16.80
2019,04,02,12,41,16.80
2019,04,02,12,42,16.90
2019,04,02,12,43,17.10
2019,04,02,12,44,17.20
2019,04,02,12,45,17.30
2019,04,02,12,46,17.30
2019,04,02,12,47,17.40
2019,04,02,12,48,17.50
2019,04,02,12,49,17.60
2019,04,02,12,50,17.50
2019,04,02,12,51,17.50
2019,04,02,12,52,17.60
2019,04,02,12,53,17.50
2019,04,02,12,54,17.40
2019,04,02,12,55,17.50
2019,04,02,12,56,17.50
2019,04,02,12,57,17.50
2019,04,02,12,58,17.50
2019,04,02,12,59,17.50
2019,04,02,13,00,17.60
2019,04,02,13,01,17.70
2019,04,02,13,02,17.60
2019,04,02,13,03,17.60
2019,04,02,13,04,17.50
2019,04,02,13,05,17.40
2019,04,02,13,06,17.30
2019,04,02,13,07,17.20
2019,04,02,13,08,17.20
2019,04,02,13,09,17.20
2019,04,02,13,10,17.30
2019,04,02,13,11,17.20
2019,04,02,13,12,17.20
2019,04,02,13,13,17.20
2019,04,02,13,14,17.30
2019,04,02,13,15,17.30
2019,04,02,13,16,17.40
2019,04,02,13,17,17.50
2019,04,02,13,18,17.60
2019,04,02,13,19,17.60
2019,04,02,13,20,17.60
2019,04,02,13,21,17.70
2019,04,02,13,22,17.70
2019,04,02,13,23,17.50
2019,04,02,13,24,17.20
2019,04,02,13,25,17.00
2019,04,02,13,26,16.80
2019,04,02,13,27,16.70
2019,04,02,13,28,16.60
2019,04,02,13,29,16.60
2019,04,02,13,30,16.30
2019,04,02,13,31,16.10
2019,04,02,13,32,15.90
2019,04,02,13,33,15.80
2019,04,02,13,34,15.60
2019,04,02,13,35,15.50
2019,04,02,13,36,15.30
2019,04,02,13,37,15.20
2019,04,02,13,38,15.10
2019,04,02,13,39,15.00
2019,04,02,13,40,15.00
2019,04,02,13,41,15.00
2019,04,02,13,42,15.00
2019,04,02,13,43,15.00
2019,04,02,13,44,15.00
2019,04,02,13,45,14.90
2019,04,02,13,46,14.90
2019,04,02,13,47,14.80
2019,04,02,13,48,14.80
2019,04,02,13,49,14.80
2019,04,02,13,50,14.70
2019,04,02,13,51,14.70
2019,04,02,13,52,14.80
2019,04,02,13,53,14.80
2019,04,02,13,54,14.80
2019,04,02,13,55,14.80
2019,04,02,13,56,14.90
2019,04,02,13,57,15.00
2019,04,02,13,58,15.00
2019,04,02,13,59,15.10
2019,04,02,14,00,15.20
2019,04,02,14,01,15.20
2019,04,02,14,02,15.20
2019,04,02,14,03,15.10
2019,04,02,14,04,15.10
2019,04,02,14,05,15.20
2019,04,02,14,06,15.20
2019,04,02,14,07,15.30
2019,04,02,14,08,15.30
2019,04,02,14,09,15.40
2019,04,02,14,10,15.50
2019,04,02,14,11,15.60
2019,04,02,14,12,15.60
2019,04,02,14,13,15.70
2019,04,02,14,14,15.70
2019,04,02,14,15,15.80
2019,04,02,14,16,15.80
2019,04,02,14,17,15.80
2019,04,02,14,18,15.80
2019,04,02,14,19,15.90
2019,04,02,14,20,15.90
2019,04,02,14,21,15.90
2019,04,02,14,22,15.90
2019,04,02,14,23,15.90
2019,04,02,14,24,15.80
2019,04,02,14,25,15.60
2019,04,02,14,26,15.40
2019,04,02,14,27,15.20
2019,04,02,14,28,15.10
2019,04,02,14,29,14.90
2019,04,02,14,30,14.80
2019,04,02,14,31,14.80
2019,04,02,14,32,14.70
2019,04,02,14,33,14.60
2019,04,02,14,34,14.60
2019,04,02,14,35,14.50
2019,04,02,14,36,14.50
2019,04,02,14,37,14.40
2019,04,02,14,38,14.40
2019,04,02,14,39,14.30
2019,04,02,14,40,14.10
2019,04,02,14,41,13.80
2019,04,02,14,42,13.50
2019,04,02,14,43,13.40
2019,04,02,14,44,13.30
2019,04,02,14,45,13.30
2019,04,02,14,46,13.20
2019,04,02,14,47,13.20
2019,04,02,14,48,13.20
2019,04,02,14,49,13.30
2019,04,02,14,50,13.30
2019,04,02,14,51,13.30
2019,04,02,14,52,13.30
2019,04,02,14,53,13.30
2019,04,02,14,54,13.40
2019,04,02,14,55,13.50
2019,04,02,14,56,13.50
2019,04,02,14,57,13.40
2019,04,02,14,58,13.40
2019,04,02,14,59,13.30
2019,04,02,15,00,13.30
2019,04,02,15,01,13.40
2019,04,02,15,02,13.40
2019,04,02,15,03,13.50
2019,04,02,15,04,13.50
2019,04,02,15,05,13.60
2019,04,02,15,06,13.60
2019,04,02,15,07,13.60
2019,04,02,15,08,13.60
2019,04,02,15,09,13.70
2019,04,02,15,10,13.70
2019,04,02,15,11,13.70
2019,04,02,15,12,13.70
2019,04,02,15,13,13.70
2019,04,02,15,14,13.70
2019,04,02,15,15,13.60
2019,04,02,15,16,13.60
2019,04,02,15,17,13.60
2019,04,02,15,18,13.60
2019,04,02,15,19,13.60
2019,04,02,15,20,13.60
2019,04,02,15,21,13.60
2019,04,02,15,22,13.60
2019,04,02,15,23,13.60
2019,04,02,15,24,13.70
2019,04,02,15,25,13.70
2019,04,02,15,26,13.70
2019,04,02,15,27,13.80
2019,04,02,15,28,13.80
2019,04,02,15,29,13.90
2019,04,02,15,30,13.90
2019,04,02,15,31,14.00
2019,04,02,15,32,14.10
2019,04,02,15,33,14.10
2019,04,02,15,34,14.20
2019,04,02,15,35,14.20
2019,04,02,15,36,14.20
2019,04,02,15,37,14.20
2019,04,02,15,38,14.20
2019,04,02,15,39,14.30
2019,04,02,15,40,14.30
2019,04,02,15,41,14.30
2019,04,02,15,42,14.30
2019,04,02,15,43,14.40
2019,04,02,15,44,14.40
2019,04,02,15,45,14.40
2019,04,02,15,46,14.40
2019,04,02,15,47,14.40
2019,04,02,15,48,14.50
2019,04,02,15,49,14.50
2019,04,02,15,50,14.50
2019,04,02,15,51,14.50
2019,04,02,15,52,14.50
2019,04,02,15,53,14.50
2019,04,02,15,54,14.50
2019,04,02,15,55,14.60
2019,04,02,15,56,14.60
2019,04,02,15,57,14.60
2019,04,02,15,58,14.60
2019,04,02,15,59,14.60
2019,04,02,16,00,14.60
2019,04,02,16,01,14.60
2019,04,02,16,02,14.60
2019,04,02,16,03,14.60
2019,04,02,16,04,14.60
2019,04,02,16,05,14.60
2019,04,02,16,06,14.70
2019,04,02,16,07,14.70
2019,04,02,16,08,14.70
2019,04,02,16,09,14.70
2019,04,02,16,10,14.80
2019,04,02,16,11,14.80
2019,04,02,16,12,14.90
2019,04,02,16,13,14.90
2019,04,02,16,14,15.00
2019,04,02,16,15,14.90
2019,04,02,16,16,14.90
2019,04,02,16,17,14.80
2019,04,02,16,18,14.80
2019,04,02,16,19,14.80
2019,04,02,16,20,14.80
2019,04,02,16,21,14.80
2019,04,02,16,22,14.90
2019,04,02,16,23,14.90
2019,04,02,16,24,14.90
2019,04,02,16,25,14.90
2019,04,02,16,26,15.00
2019,04,02,16,27,15.00
2019,04,02,16,28,15.00
2019,04,02,16,29,15.10
2019,04,02,16,30,15.10
2019,04,02,16,31,15.10
2019,04,02,16,32,15.20
2019,04,02,16,33,15.20
2019,04,02,16,34,15.20
2019,04,02,16,35,15.20
2019,04,02,16,36,15.20
2019,04,02,16,37,15.30
2019,04,02,16,38,15.30
2019,04,02,16,39,15.30
2019,04,02,16,40,15.30
2019,04,02,16,41,15.30
2019,04,02,16,42,15.40
2019,04,02,16,43,15.40
2019,04,02,16,44,15.40
2019,04,02,16,45,15.40
2019,04,02,16,46,15.50
2019,04,02,16,47,15.50
2019,04,02,16,48,15.60
2019,04,02,16,49,15.60
2019,04,02,16,50,15.70
2019,04,02,16,51,15.70
2019,04,02,16,52,15.70
2019,04,02,16,53,15.70
2019,04,02,16,54,15.70
2019,04,02,16,55,15.70
2019,04,02,16,56,15.70
2019,04,02,16,57,15.70
2019,04,02,16,58,15.70
2019,04,02,16,59,15.70
2019,04,02,17,00,15.70
2019,04,02,17,01,15.80
2019,04,02,17,02,15.80
2019,04,02,17,03,15.80
2019,04,02,17,04,15.80
2019,04,02,17,05,15.90
2019,04,02,17,06,15.90
2019,04,02,17,07,15.90
2019,04,02,17,08,16.00
2019,04,02,17,09,16.00
2019,04,02,17,10,16.00
2019,04,02,17,11,16.00
2019,04,02,17,12,16.00
2019,04,02,17,13,16.00
2019,04,02,17,14,16.10
2019,04,02,17,15,16.10
2019,04,02,17,16,16.10
2019,04,02,17,17,16.10
2019,04,02,17,18,16.20
2019,04,02,17,19,16.20
2019,04,02,17,20,16.20
2019,04,02,17,21,16.30
2019,04,02,17,22,16.30
2019,04,02,17,23,16.30
2019,04,02,17,24,16.30
2019,04,02,17,25,16.30
2019,04,02,17,26,16.30
2019,04,02,17,27,16.30
2019,04,02,17,28,16.30
2019,04,02,17,29,16.30
2019,04,02,17,30,16.30
2019,04,02,17,31,16.30
2019,04,02,17,32,16.30
2019,04,02,17,33,16.40
2019,04,02,17,34,16.40
2019,04,02,17,35,16.40
2019,04,02,17,36,16.40
2019,04,02,17,37,16.40
2019,04,02,17,38,16.40
2019,04,02,17,39,16.40